This is the latest recevied weather packets stored in our database for station/object IU1INZ-13. If no packets are shown the sender has not sent any weather packets the latest 10 day(s).
| Time | Temp. | Humidity | Pressure | Rain* | Wind** | Luminosity | Snow |
|---|---|---|---|---|---|---|---|
| 1777433433 | 13.89° C | 92% | 1017.1 hPa | 0 mm | - | - | - |
| 1777432532 | 13.89° C | 91% | 1017.1 hPa | 0 mm | - | - | - |
| 1777431635 | 13.89° C | 91% | 1017.1 hPa | 0 mm | - | - | - |
| 1777430733 | 13.89° C | 91% | 1017.1 hPa | 0.25 mm | - | - | - |
| 1777429834 | 14.44° C | 91% | 1017 hPa | 0.76 mm | - | - | - |
| 1777428932 | 14.44° C | 91% | 1016.8 hPa | 1.02 mm | - | - | - |
| 1777428031 | 13.89° C | 90% | 1016.6 hPa | 1.02 mm | - | - | - |
| 1777427157 | 14.44° C | 90% | 1016.5 hPa | 0.76 mm | - | - | - |
| 1777426233 | 14.44° C | 90% | 1016.4 hPa | 0.25 mm | - | - | - |
| 1777425332 | 14.44° C | 90% | 1016.5 hPa | 0 mm | - | - | - |
| 1777424433 | 14.44° C | 89% | 1016.2 hPa | 0 mm | - | - | - |
| 1777423547 | 14.44° C | 89% | 1016.3 hPa | 0 mm | - | - | - |
| 1777422633 | 14.44° C | 88% | 1016.3 hPa | 0 mm | - | - | - |
| 1777421734 | 14.44° C | 88% | 1016.2 hPa | 0 mm | - | - | - |
| 1777420834 | 14.44° C | 87% | 1016.4 hPa | 0 mm | - | - | - |
| 1777419933 | 14.44° C | 88% | 1016.3 hPa | 0 mm | - | - | - |
| 1777419032 | 14.44° C | 88% | 1016.4 hPa | 0 mm | - | - | - |
| 1777418130 | 14.44° C | 89% | 1016.5 hPa | 0 mm | - | - | - |
| 1777417235 | 14.44° C | 89% | 1016.4 hPa | 0 mm | - | - | - |
| 1777416333 | 15° C | 89% | 1016.5 hPa | 0 mm | - | - | - |
| 1777415432 | 15° C | 88% | 1016.4 hPa | 0 mm | - | - | - |
| 1777414536 | 15° C | 89% | 1016.4 hPa | 0 mm | - | - | - |
| 1777413631 | 15° C | 89% | 1016.5 hPa | 0 mm | - | - | - |
| 1777412734 | 15° C | 89% | 1016.6 hPa | 0 mm | - | - | - |
| 1777411833 | 15° C | 90% | 1016.4 hPa | 0 mm | - | - | - |
* Rain latest hour (hover to see other rain measurements)
** Current wind speed in m/s (hover to see current wind gust speed)